When you browse on this site, cookies collect data to enhance your experience and personalize the content and advertising you see.
Visit our Privacy Policy to learn more. By continuing to use the site, you agree to this use of cookies and data.
  • In Schweiz
  • Länderverzeichnis
  • Für 7 Tage
  • Wassertemperatur
  • Satellitenkarten
  • Wetterkarte
  • Widgets
  • user-avatar
    Anmelden

    Stündliche Wetter Sherpur

    Heute, 16 Juli, Dienstag

    Zeit Temperatur Niederschläge Wind Luftdruck Luftfeuchtigkeit
    00:00 +23°C° 0 mm 2 m/S 607 mmHg 25%
    01:00 +21°C° 0 mm 2 m/S 606 mmHg 26%
    02:00 +20°C° 0 mm 2 m/S 605 mmHg 27%
    03:00 +20°C° 0 mm 2 m/S 605 mmHg 27%
    04:00 +20°C° 0 mm 1 m/S 605 mmHg 28%
    05:00 +19°C° 0 mm 2 m/S 605 mmHg 28%
    06:00 +21°C° 0 mm 2 m/S 606 mmHg 25%
    07:00 +24°C° 0 mm 2 m/S 607 mmHg 21%
    08:00 +27°C° 0 mm 1 m/S 608 mmHg 18%
    09:00 +28°C° 0 mm 2 m/S 609 mmHg 17%
    10:00 +30°C° 0 mm 2 m/S 609 mmHg 15%
    11:00 +33°C° 0 mm 3 m/S 610 mmHg 13%
    12:00 +34°C° 0 mm 3 m/S 610 mmHg 13%
    13:00 +35°C° 0 mm 4 m/S 610 mmHg 12%
    14:00 +36°C° 0 mm 4 m/S 610 mmHg 11%
    15:00 +36°C° 0 mm 4 m/S 610 mmHg 11%
    16:00 +36°C° 0 mm 4 m/S 610 mmHg 11%
    17:00 +36°C° 0 mm 4 m/S 610 mmHg 12%
    18:00 +33°C° 0 mm 4 m/S 609 mmHg 20%
    19:00 +30°C° 0 mm 4 m/S 609 mmHg 28%
    20:00 +27°C° 0 mm 4 m/S 608 mmHg 36%
    21:00 +26°C° 0 mm 3 m/S 608 mmHg 43%
    22:00 +25°C° 0 mm 3 m/S 608 mmHg 50%
    23:00 +24°C° 0 mm 2 m/S 608 mmHg 56%

    Morgen, 17 Juli, Mittwoch

    Zeit Temperatur Niederschläge Wind Luftdruck Luftfeuchtigkeit
    00:00 +23°C° 0 mm 1 m/S 608 mmHg 59%
    01:00 +22°C° 0 mm 1 m/S 607 mmHg 62%
    02:00 +21°C° 0 mm 1 m/S 607 mmHg 65%
    03:00 +21°C° 0 mm 1 m/S 607 mmHg 64%
    04:00 +20°C° 0 mm 1 m/S 606 mmHg 64%
    05:00 +20°C° 0 mm 1 m/S 606 mmHg 64%
    06:00 +20°C° 0 mm 0 m/S 607 mmHg 53%
    07:00 +22°C° 0 mm 0 m/S 608 mmHg 41%
    08:00 +24°C° 0 mm 0 m/S 609 mmHg 30%
    09:00 +28°C° 0 mm 1 m/S 610 mmHg 24%
    10:00 +30°C° 0 mm 1 m/S 610 mmHg 19%
    11:00 +32°C° 0 mm 1 m/S 610 mmHg 13%
    12:00 +34°C° 0 mm 2 m/S 610 mmHg 12%
    13:00 +35°C° 0 mm 2 m/S 610 mmHg 10%
    14:00 +36°C° 0 mm 2 m/S 610 mmHg 9%
    15:00 +36°C° 0 mm 3 m/S 610 mmHg 9%
    16:00 +36°C° 0 mm 4 m/S 610 mmHg 9%
    17:00 +37°C° 0 mm 4 m/S 610 mmHg 9%
    18:00 +34°C° 0 mm 4 m/S 610 mmHg 16%
    19:00 +32°C° 0 mm 4 m/S 609 mmHg 23%
    20:00 +28°C° 0 mm 4 m/S 608 mmHg 30%
    21:00 +27°C° 0 mm 3 m/S 608 mmHg 36%
    22:00 +26°C° 0 mm 2 m/S 608 mmHg 43%
    23:00 +24°C° 0 mm 2 m/S 608 mmHg 49%

    übermorgen, 18 Juli, Donnerstag

    Zeit Temperatur Niederschläge Wind Luftdruck Luftfeuchtigkeit
    00:00 +23°C° 0 mm 1 m/S 608 mmHg 53%
    01:00 +22°C° 0 mm 1 m/S 607 mmHg 56%
    02:00 +22°C° 0 mm 1 m/S 607 mmHg 60%
    03:00 +21°C° 0 mm 1 m/S 606 mmHg 61%
    04:00 +20°C° 0 mm 1 m/S 606 mmHg 62%
    05:00 +20°C° 0 mm 1 m/S 606 mmHg 62%
    06:00 +22°C° 0 mm 1 m/S 607 mmHg 51%
    07:00 +24°C° 0 mm 1 m/S 608 mmHg 40%
    08:00 +25°C° 0 mm 0 m/S 609 mmHg 29%
    09:00 +28°C° 0 mm 1 m/S 609 mmHg 23%
    10:00 +30°C° 0 mm 1 m/S 610 mmHg 17%
    11:00 +32°C° 0 mm 1 m/S 610 mmHg 12%
    12:00 +34°C° 0 mm 2 m/S 610 mmHg 11%
    13:00 +35°C° 0 mm 2 m/S 610 mmHg 10%
    14:00 +36°C° 0 mm 2 m/S 610 mmHg 9%
    15:00 +37°C° 0 mm 3 m/S 610 mmHg 9%
    16:00 +37°C° 0 mm 3 m/S 610 mmHg 8%
    17:00 +37°C° 0 mm 4 m/S 610 mmHg 8%
    18:00 +35°C° 0 mm 4 m/S 610 mmHg 12%
    19:00 +31°C° 0 mm 3 m/S 609 mmHg 15%
    20:00 +29°C° 0 mm 3 m/S 609 mmHg 19%
    21:00 +28°C° 0 mm 3 m/S 609 mmHg 27%
    22:00 +26°C° 0 mm 2 m/S 609 mmHg 36%
    23:00 +25°C° 0 mm 2 m/S 608 mmHg 44%

    19 Juli, Freitag

    Zeit Temperatur Niederschläge Wind Luftdruck Luftfeuchtigkeit
    00:00 +24°C° 0 mm 1 m/S 608 mmHg 48%
    01:00 +23°C° 0 mm 1 m/S 607 mmHg 53%
    02:00 +22°C° 0 mm 1 m/S 607 mmHg 57%
    03:00 +22°C° 0 mm 1 m/S 607 mmHg 59%
    04:00 +21°C° 0 mm 1 m/S 607 mmHg 61%
    05:00 +19°C° 0 mm 0 m/S 606 mmHg 62%
    06:00 +21°C° 0 mm 0 m/S 608 mmHg 52%
    07:00 +23°C° 0 mm 0 m/S 609 mmHg 42%
    08:00 +25°C° 0 mm 0 m/S 610 mmHg 32%
    09:00 +29°C° 0 mm 1 m/S 610 mmHg 26%
    10:00 +31°C° 0 mm 1 m/S 611 mmHg 19%
    11:00 +33°C° 0 mm 1 m/S 611 mmHg 13%
    12:00 +35°C° 0 mm 2 m/S 611 mmHg 12%
    13:00 +36°C° 0 mm 2 m/S 611 mmHg 10%
    14:00 +37°C° 0 mm 2 m/S 611 mmHg 9%
    15:00 +37°C° 0 mm 3 m/S 611 mmHg 9%
    16:00 +37°C° 0 mm 3 m/S 611 mmHg 9%
    17:00 +38°C° 0 mm 3 m/S 611 mmHg 9%
    18:00 +35°C° 0 mm 3 m/S 611 mmHg 15%
    19:00 +33°C° 0 mm 3 m/S 610 mmHg 20%
    20:00 +30°C° 0 mm 3 m/S 609 mmHg 25%
    21:00 +28°C° 0 mm 3 m/S 609 mmHg 33%
    22:00 +27°C° 0 mm 2 m/S 609 mmHg 41%
    23:00 +26°C° 0 mm 1 m/S 609 mmHg 50%

    20 Juli, Samstag

    Zeit Temperatur Niederschläge Wind Luftdruck Luftfeuchtigkeit
    00:00 +25°C° 0 mm 1 m/S 609 mmHg 52%
    01:00 +24°C° 0 mm 1 m/S 608 mmHg 55%
    02:00 +23°C° 0 mm 1 m/S 608 mmHg 58%
    03:00 +23°C° 0 mm 1 m/S 608 mmHg 60%
    04:00 +22°C° 0 mm 1 m/S 608 mmHg 62%
    05:00 +19°C° 0 mm 0 m/S 607 mmHg 64%
    06:00 +24°C° 0 mm 1 m/S 608 mmHg 53%
    07:00 +26°C° 0 mm 1 m/S 609 mmHg 42%
    08:00 +28°C° 0 mm 1 m/S 610 mmHg 31%
    09:00 +30°C° 0 mm 1 m/S 611 mmHg 25%
    10:00 +32°C° 0 mm 1 m/S 612 mmHg 18%
    11:00 +34°C° 0 mm 1 m/S 612 mmHg 12%
    12:00 +36°C° 0 mm 2 m/S 612 mmHg 11%
    13:00 +37°C° 0 mm 3 m/S 612 mmHg 9%
    14:00 +38°C° 0 mm 3 m/S 612 mmHg 8%
    15:00 +38°C° 0 mm 4 m/S 612 mmHg 8%
    16:00 +39°C° 0 mm 5 m/S 612 mmHg 8%
    17:00 +39°C° 0 mm 6 m/S 612 mmHg 8%
    18:00 +36°C° 0 mm 5 m/S 611 mmHg 11%
    19:00 +33°C° 0 mm 4 m/S 611 mmHg 14%
    20:00 +30°C° 0 mm 4 m/S 610 mmHg 17%
    21:00 +28°C° 0 mm 3 m/S 610 mmHg 22%
    22:00 +27°C° 0 mm 2 m/S 609 mmHg 26%
    23:00 +25°C° 0 mm 1 m/S 609 mmHg 31%

    21 Juli, Sonntag

    Zeit Temperatur Niederschläge Wind Luftdruck Luftfeuchtigkeit
    00:00 +24°C° 0 mm 1 m/S 609 mmHg 30%
    01:00 +24°C° 0 mm 1 m/S 608 mmHg 29%
    02:00 +23°C° 0 mm 1 m/S 608 mmHg 27%
    03:00 +22°C° 0 mm 1 m/S 607 mmHg 26%
    04:00 +22°C° 0 mm 1 m/S 607 mmHg 25%
    05:00 +21°C° 0 mm 1 m/S 607 mmHg 24%
    06:00 +24°C° 0 mm 1 m/S 608 mmHg 21%
    07:00 +26°C° 0 mm 1 m/S 609 mmHg 18%
    08:00 +29°C° 0 mm 1 m/S 610 mmHg 14%
    09:00 +31°C° 0 mm 2 m/S 610 mmHg 13%
    10:00 +32°C° 0 mm 2 m/S 611 mmHg 11%
    11:00 +35°C° 0 mm 3 m/S 611 mmHg 10%
    12:00 +36°C° 0 mm 4 m/S 611 mmHg 9%
    13:00 +39°C° 0 mm 5 m/S 611 mmHg 8%
    14:00 +40°C° 0 mm 6 m/S 612 mmHg 8%
    15:00 +39°C° 0 mm 7 m/S 611 mmHg 8%
    16:00 +39°C° 0 mm 8 m/S 611 mmHg 8%
    17:00 +39°C° 0 mm 9 m/S 611 mmHg 8%
    18:00 +35°C° 0 mm 7 m/S 610 mmHg 9%
    19:00 +33°C° 0 mm 5 m/S 609 mmHg 10%
    20:00 +29°C° 0 mm 4 m/S 609 mmHg 11%
    21:00 +28°C° 0 mm 3 m/S 608 mmHg 13%
    22:00 +27°C° 0 mm 3 m/S 608 mmHg 15%
    23:00 +25°C° 0 mm 2 m/S 608 mmHg 16%
    Mehr zeigen